Terminal Aerodrome Forecast
Issued by NWS Springfield, MO

Home | Current Version | Previous Version | Text Only | Print | Product List | Glossary On
Versions: 1 2 3 4 5 6 7 8 9 10 11 12 13 14 15 16 17 18 19 20 21 22 23 24
000
FTUS43 KSGF 251737 AAC
TAFSGF
TAF AMD
KSGF 251737Z 2518/2618 26008KT P6SM -SHRA SCT015 BKN050 OVC070
     FM251900 26009KT P6SM -SHRA OVC015
     FM252000 25010KT P6SM VCSH OVC010
     FM260000 27009KT P6SM OVC010
     FM260500 27007KT P6SM OVC008
     FM261400 25006KT P6SM OVC010
     FM261600 24006KT P6SM BKN020
     FM261700 25006KT P6SM BKN035=

USA.gov is the U.S. government's official web portal to all federal, state and local government web resources and services.